Tracking 28920 objects as of 26-May-2024
HD Live streaming from Space Station
objects crossing your sky now

STARLINK-31881

Track STARLINK-31881 now!
10-day predictions
STARLINK-31881 is classified as:


NORAD ID: 59659
Int'l Code: 2024-084F
Perigee: 411.2 km
Apogee: 413.2 km
Inclination: 43.0 °
Period: 92.7 minutes
Semi major axis: 6783 km
RCS: Unknown
Launch date: May 6, 2024
Source: United States (US)
Launch site: AIR FORCE EASTERN TEST RANGE (AFETR)
Your satellite tracking list
Your tracking list is empty




NASA's NSSDC Master Catalog

Two Line Element Set (TLE):
1 59659U 24084F   24147.58334491 -.01712304  00000-0 -28863-1 0  9995
2 59659  42.9999 154.8228 0001464 269.5474  44.3396 15.54007809  4305
Source of the keplerian elements: AFSPC